Simultaneous Nadir Overpasses (SNOs) Predictions

Prediction of SNOs between METOP-C and LANDSAT-8 Satellite Orbit:

Table of predicted SNOs for the next 14.0 days since TLE Epoch: 2/12/2022
Index Date (METOP-C) Time (METOP-C) Lat,Lon (METOP-C) SZA (METOP-C ) Date (LANDSAT-8) Time (LANDSAT-8) Lat,Lon (LANDSAT-8) SZA (LANDSAT-8 ) Distance(km) Time Diff (sec)
1 02/13/2022 01:08:09 -81.09, 22.07 83.92 02/13/2022 01:08:22 -81.09, 22.09 83.91 0.40 13
2 02/13/2022 01:58:47 81.12,-169.92 96.15 02/13/2022 01:57:47 81.12,-169.79 96.15 2.42 60
3 02/15/2022 20:42:30 -81.09, 88.51 84.87 02/15/2022 20:42:35 -81.09, 88.52 84.87 0.28 5
4 02/15/2022 21:33:08 81.11,-103.54 95.20 02/15/2022 21:32:00 81.12,-103.39 95.19 2.56 68
5 02/18/2022 15:26:12 81.06, -13.18 94.08 02/18/2022 15:27:23 81.06, -13.10 94.11 1.32 71
6 02/18/2022 16:16:51 -81.11, 155.28 85.80 02/18/2022 16:16:48 -81.11, 155.21 85.81 1.28 3
7 02/21/2022 11:00:33 81.07, 53.52 93.11 02/21/2022 11:01:36 81.07, 53.47 93.13 0.90 63
8 02/21/2022 11:51:14 -81.09,-138.73 86.85 02/21/2022 11:51:02 -81.09,-138.55 86.84 3.03 12
9 02/24/2022 06:34:55 81.07, 119.81 92.08 02/24/2022 06:35:49 81.07, 119.95 92.12 2.47 54



Historial Predications of SNOs between METOP-C and LANDSAT-8
